Stations météo

Publicité
Montauban, France (7540): Température de l'air & dewpoint: 13.10.2017 21:00:00 - 19.10.2017 21:00:00 (CEST)Montauban, France (7540): Température de l'air 5cm: 13.10.2017 21:00:00 - 19.10.2017 21:00:00 (CEST)Montauban, France (7540): Température de l'air -20cm & Température de l'air -100cm: 13.10.2017 21:00:00 - 19.10.2017 21:00:00 (CEST)Montauban, France (7540): Vitesse du vent & gusts: 13.10.2017 21:00:00 - 19.10.2017 21:00:00 (CEST)Montauban, France (7540): Direction du vent: 13.10.2017 21:00:00 - 19.10.2017 21:00:00 (CEST)Montauban, France (7540): reduced air pressure: 13.10.2017 21:00:00 - 19.10.2017 21:00:00 (CEST)Montauban, France (7540): visibility: 13.10.2017 21:00:00 - 19.10.2017 21:00:00 (CEST)Montauban, France (7540): Ensoleillement: 13.10.2017 21:00:00 - 19.10.2017 21:00:00 (CEST)Montauban, France (7540): Quantités de précipitations: 13.10.2017 21:00:00 - 19.10.2017 21:00:00 (CEST)
Date & Time tt [°C] td [°C] tt 5cm [°C] tt -20cm [°C] tt -100cm [°C] ff [km/h] ff [knt] fx [km/h] fx [knt] dd ppp [hPa] vv [km] sd [min] rr [mm]
19.10.2017 21:00:00 13,8 12,2 11,3 17,8 17,8 5 3 7 4 SSE 1013,4 14 0 0,0
19.10.2017 20:00:00 15,9 12,5 13,3 17,8 17,8 0 0 9 5 N 1013,2 20 0 0,0
19.10.2017 19:00:00 17,4 13,3 17,0 17,7 17,8 8 5 16 9 SE 1012,3 19 41 0,0
19.10.2017 18:00:00 19,2 12,5 23,1 17,6 17,7 5 3 12 6 SE 1011,7 20 58 0,0
19.10.2017 17:00:00 19,0 12,3 21,5 17,6 17,8 4 2 9 5 NNE 1011,0 20 52 0,0
19.10.2017 16:00:00 17,9 13,2 18,2 17,5 17,8 3 2 8 5 ENE 1011,6 20 4 0,0
19.10.2017 15:00:00 17,5 13,2 18,1 17,4 17,8 0 0 10 5 N 1011,4 20 0 0,0
19.10.2017 14:00:00 16,9 12,8 18,6 17,4 17,8 5 3 10 5 SE 1012,0 20 0 0,0
19.10.2017 13:00:00 16,8 12,5 17,7 17,4 17,8 4 2 13 7 SSW 1012,1 20 8 0,0
19.10.2017 12:00:00 15,9 13,2 16,2 17,4 17,8 6 3 10 5 WSW 1012,3 14 0 0,0
19.10.2017 11:00:00 15,5 13,0 16,2 17,4 17,8 4 2 6 4 SSW 1012,0 20 0 0,0
19.10.2017 10:00:00 14,9 12,9 14,8 17,4 17,7 0 0 8 4 N 1011,8 17 0 0,0
19.10.2017 09:00:00 14,6 13,0 14,1 17,5 17,8 5 3 10 5 SW 1011,5 20 0 0,0
19.10.2017 08:00:00 14,8 12,8 14,3 17,5 17,7 5 3 13 7 W 1011,3 14 0 0,0
19.10.2017 07:00:00 14,9 13,1 14,7 17,5 17,8 9 5 14 8 W 1010,6 20 0 0,0
19.10.2017 06:00:00 14,9 12,9 14,8 17,5 17,8 7 4 16 9 WNW 1010,3 20 0 0,0
19.10.2017 05:00:00 15,1 13,3 14,9 17,6 17,8 9 5 23 12 W 1010,3 20 0 0,0
19.10.2017 04:00:00 16,0 14,5 15,7 17,6 17,8 6 3 14 8 W 1010,4 16 0 0,0
19.10.2017 03:00:00 15,9 14,4 15,2 17,7 17,8 5 3 15 8 WSW 1010,3 20 0 0,0
19.10.2017 02:00:00 15,7 14,1 15,0 17,7 17,8 7 4 19 10 W 1009,8 20 0 0,0
19.10.2017 01:00:00 16,5 15,2 16,0 17,7 17,8 11 6 19 10 W 1009,0 19 0 0,0
19.10.2017 00:00:00 17,2 15,5 16,6 17,7 17,8 7 4 12 6 WNW 1008,8 13 0 0,0
18.10.2017 23:00:00 18,9 15,6 17,1 17,7 17,8 5 3 24 13 SSW 1008,7 20 0 0,0
18.10.2017 22:00:00 19,5 15,2 17,1 17,7 17,8 13 7 25 14 SE 1008,6 14 0 0,4
18.10.2017 21:00:00 20,8 14,4 18,8 17,6 17,8 15 8 37 20 SE 1008,9 20 0 0,0
18.10.2017 20:00:00 19,6 14,6 17,2 17,5 17,8 8 4 18 10 SE 1008,7 20 0 0,0
18.10.2017 19:00:00 20,0 14,4 19,0 17,5 17,8 6 3 35 19 N 1008,3 20 0 0,0
18.10.2017 18:00:00 23,1 13,8 22,2 17,3 17,8 9 5 29 16 S 1008,5 20 0 0,0
18.10.2017 17:00:00 24,0 13,2 23,2 17,2 17,8 11 6 33 18 SE 1008,2 20 13 0,0
18.10.2017 16:00:00 24,8 13,0 24,9 17,0 17,8 16 9 33 18 SE 1007,9 20 29 0,0
18.10.2017 15:00:00 26,2 13,0 28,3 16,8 17,8 19 10 34 19 SE 1008,0 20 57 0,0
18.10.2017 14:00:00 26,0 13,1 28,6 16,7 17,8 17 9 34 19 SE 1009,2 20 60 0,0
18.10.2017 13:00:00 24,5 13,4 26,3 16,6 17,8 17 9 29 16 SSE 1010,5 20 36 0,0
18.10.2017 12:00:00 22,7 14,3 22,3 16,6 17,8 0 0 6 3 N 1011,3 20 44 0,0
18.10.2017 11:00:00 19,9 13,1 21,7 16,6 17,8 2 1 7 4 W 1012,4 20 60 0,0
18.10.2017 10:00:00 17,7 12,6 16,2 16,7 17,8 0 0 9 5 N 1013,0 19 60 0,0
18.10.2017 09:00:00 14,2 12,1 11,8 16,8 17,8 6 3 9 5 E 1013,0 19 26 0,0
18.10.2017 08:00:00 13,0 11,7 11,0 16,9 17,8 8 4 10 6 E 1013,1 14 0 0,0
18.10.2017 07:00:00 11,5 11,3 9,5 17,0 17,8 4 2 6 3 ESE 1013,8 11 0 0,0
18.10.2017 06:00:00 11,3 10,5 9,0 17,1 17,8 2 1 5 3 SSE 1014,3 7 0 0,0
18.10.2017 05:00:00 12,0 10,6 9,8 17,2 17,8 0 0 8 4 N 1014,7 16 0 0,0
18.10.2017 04:00:00 11,5 10,7 8,7 17,3 17,8 5 3 9 5 WSW 1015,2 12 0 0,0
18.10.2017 03:00:00 11,2 9,6 8,5 17,3 17,8 0 0 3 2 N 1015,5 11 0 0,0
18.10.2017 02:00:00 12,8 10,5 9,5 17,4 17,8 0 0 7 4 N 1015,8 19 0 0,0
18.10.2017 01:00:00 14,4 11,0 - - - 4 2 16 9 ESE 1016,1 20 - 0,0
18.10.2017 00:00:00 16,1 11,7 14,1 17,5 17,8 9 5 13 7 ESE 1016,5 20 0 0,0
17.10.2017 23:00:00 17,1 12,2 14,8 17,5 17,8 6 3 21 12 ESE 1016,8 20 0 0,0
17.10.2017 22:00:00 17,8 12,5 16,0 17,5 17,8 10 5 23 12 ESE 1016,9 20 0 0,0
17.10.2017 21:00:00 18,3 12,3 16,9 17,5 17,8 15 8 31 17 SE 1016,9 20 0 0,0
17.10.2017 20:00:00 19,2 12,5 17,7 17,4 17,8 16 9 28 15 SE 1017,0 20 0 0,0
17.10.2017 19:00:00 20,5 11,9 19,2 17,3 17,8 14 8 28 15 ESE 1016,8 20 33 0,0
17.10.2017 18:00:00 22,4 12,1 23,5 17,2 17,8 18 10 35 19 ESE 1016,8 20 60 0,0
17.10.2017 17:00:00 23,7 12,0 26,1 17,0 17,8 22 12 33 18 SSE 1017,1 20 60 0,0
17.10.2017 16:00:00 24,1 11,8 27,4 16,9 17,8 19 11 33 18 SE 1017,2 20 60 0,0
17.10.2017 15:00:00 24,8 12,4 28,1 16,8 17,8 23 12 36 19 SSE 1017,7 20 60 0,0
17.10.2017 14:00:00 24,4 12,7 27,5 16,7 17,8 17 9 33 18 SSE 1018,6 20 60 0,0
17.10.2017 13:00:00 23,3 12,3 26,0 16,6 17,8 16 9 33 18 S 1019,4 20 60 0,0
17.10.2017 12:00:00 21,5 13,1 23,8 16,6 17,8 16 9 24 13 SSE 1020,0 20 60 0,0
17.10.2017 11:00:00 19,7 13,8 21,1 16,7 17,8 8 4 16 9 SE 1020,7 20 60 0,0
17.10.2017 10:00:00 15,0 12,5 13,2 16,8 17,8 2 1 7 4 ENE 1021,1 19 60 0,0
17.10.2017 09:00:00 12,0 11,5 7,0 16,9 17,8 4 2 6 3 E 1021,2 10 27 0,0
17.10.2017 08:00:00 10,2 9,7 7,0 17,0 17,8 2 1 5 3 E 1021,3 7 0 0,0
17.10.2017 07:00:00 10,4 9,8 7,6 17,1 17,8 0 0 4 2 N 1021,7 12 0 0,0
17.10.2017 06:00:00 10,8 10,2 8,2 17,2 17,8 0 0 3 2 N 1022,2 14 0 0,0
17.10.2017 05:00:00 11,0 9,7 8,8 17,3 17,8 0 0 5 3 N 1022,6 13 0 0,0
17.10.2017 04:00:00 11,4 10,6 8,9 17,4 17,8 4 2 5 3 E 1023,1 13 0 0,0
17.10.2017 03:00:00 11,4 10,5 9,0 17,5 17,8 3 2 5 3 ESE 1024,0 14 0 0,0
17.10.2017 02:00:00 12,3 10,4 9,9 17,6 17,8 0 0 4 2 N 1024,3 17 0 0,0
17.10.2017 01:00:00 13,1 11,3 10,1 17,7 17,8 4 2 4 2 SE 1024,5 20 0 0,0
17.10.2017 00:00:00 14,4 11,7 10,9 17,8 17,8 0 0 4 2 N 1024,6 20 0 0,0
16.10.2017 23:00:00 16,6 11,7 12,6 17,8 17,8 0 0 12 6 N 1024,5 20 0 0,0
16.10.2017 22:00:00 17,8 12,3 15,6 17,8 17,8 9 5 21 12 SSE 1023,8 20 0 0,0
16.10.2017 21:00:00 18,3 12,9 16,3 17,7 17,8 12 6 17 9 SSE 1023,6 20 0 0,0
16.10.2017 20:00:00 20,2 13,2 17,1 17,6 17,8 10 5 14 8 S 1023,6 20 0 0,0
16.10.2017 19:00:00 22,9 13,1 20,3 17,5 17,8 4 2 19 10 WSW 1023,4 20 46 0,0
16.10.2017 18:00:00 25,0 13,9 26,7 17,3 17,8 13 7 22 12 S 1022,3 20 60 0,0
16.10.2017 17:00:00 26,6 14,0 29,3 17,1 17,8 13 7 24 13 SE 1022,1 20 60 0,0
16.10.2017 16:00:00 26,8 13,5 30,2 17,0 17,8 14 8 26 14 SSE 1022,4 19 60 0,0
16.10.2017 15:00:00 26,6 14,0 - - - 13 7 26 14 SSE 1022,7 20 - 0,0
16.10.2017 14:00:00 25,6 13,4 29,2 16,7 17,8 15 8 27 14 SSE 1023,5 20 60 0,0
16.10.2017 13:00:00 24,1 13,6 27,4 16,7 17,8 13 7 24 13 S 1024,0 20 60 0,0
16.10.2017 12:00:00 22,5 13,8 24,3 16,7 17,8 16 9 24 13 SSE 1024,1 20 60 0,0
16.10.2017 11:00:00 20,5 14,2 21,5 16,7 17,8 6 4 18 10 SSE 1024,3 20 60 0,0
16.10.2017 10:00:00 16,3 13,6 12,8 16,9 17,8 2 1 8 4 E 1024,2 19 60 0,2
16.10.2017 09:00:00 12,1 11,6 7,6 17,0 17,8 3 2 5 3 E 1023,6 11 28 0,0
16.10.2017 08:00:00 10,4 9,8 7,5 17,1 17,8 2 1 4 2 ESE 1023,3 12 0 0,0
16.10.2017 07:00:00 10,7 10,2 7,8 17,2 17,8 3 1 4 2 SSE 1023,0 10 0 0,0
16.10.2017 06:00:00 11,0 10,2 7,9 17,3 17,8 2 1 3 2 SSE 1022,9 17 0 0,0
16.10.2017 05:00:00 11,0 9,9 8,4 17,4 17,8 0 0 4 2 N 1023,0 15 0 0,0
16.10.2017 04:00:00 12,0 11,4 8,9 17,5 17,8 2 1 4 2 SSE 1023,2 15 0 0,0
16.10.2017 03:00:00 12,5 11,4 9,5 17,5 17,8 2 1 3 2 SSE 1023,7 17 0 0,0
16.10.2017 02:00:00 13,1 11,8 9,8 17,6 17,8 0 0 4 2 N 1024,0 15 0 0,0
16.10.2017 01:00:00 14,3 12,2 11,1 17,7 17,8 0 0 6 3 N 1024,4 20 0 0,0
16.10.2017 00:00:00 16,4 13,1 13,7 17,7 17,8 5 3 8 5 ESE 1024,5 20 0 0,0
15.10.2017 23:00:00 18,1 13,6 15,6 17,7 17,8 4 2 22 12 E 1024,5 20 0 0,0
15.10.2017 22:00:00 19,2 14,0 17,4 17,7 17,8 13 7 21 11 SE 1024,3 20 0 0,0
15.10.2017 21:00:00 19,6 14,0 17,6 17,6 17,8 12 7 26 14 SSE 1024,2 20 0 0,0
15.10.2017 20:00:00 21,2 13,9 19,7 17,5 17,8 18 10 35 19 SSE 1023,7 20 0 0,0
15.10.2017 19:00:00 23,0 13,7 21,6 17,4 17,8 16 9 27 14 SE 1023,2 20 48 0,0
15.10.2017 18:00:00 25,4 13,9 26,6 17,2 17,8 14 8 24 13 SE 1022,8 20 60 0,0
15.10.2017 17:00:00 26,3 13,8 28,8 17,0 17,8 17 9 31 17 SE 1022,7 20 60 0,0
15.10.2017 16:00:00 26,8 14,2 30,0 16,9 17,8 16 9 28 15 SE 1022,9 19 60 0,0
15.10.2017 15:00:00 26,7 14,8 30,3 16,6 17,8 16 9 28 15 SSE 1023,2 20 60 0,0
15.10.2017 14:00:00 25,8 15,5 29,9 16,5 17,8 13 7 26 14 SSE 1023,7 20 60 0,0
15.10.2017 13:00:00 24,4 15,9 26,8 16,5 17,8 9 5 24 13 S 1024,7 20 60 0,0
15.10.2017 12:00:00 22,2 15,8 25,8 16,5 17,8 14 8 22 12 SSE 1025,1 20 60 0,0
15.10.2017 11:00:00 19,1 15,0 19,6 16,5 17,8 2 1 6 3 E 1025,6 19 60 0,0
15.10.2017 10:00:00 15,5 13,5 14,7 16,6 17,8 5 3 8 5 E 1025,7 13 60 0,0
15.10.2017 09:00:00 11,4 10,8 8,7 16,7 17,8 3 2 5 3 ESE 1025,5 9 29 0,0
15.10.2017 08:00:00 11,1 10,6 7,9 16,8 17,8 0 0 10 6 N 1025,2 9 0 0,0
15.10.2017 07:00:00 10,5 9,7 8,2 16,9 17,8 2 1 5 3 E 1025,1 10 0 0,0
15.10.2017 06:00:00 10,6 9,8 8,4 17,0 17,8 3 2 7 4 E 1024,8 8 0 0,2
15.10.2017 05:00:00 10,7 9,8 8,8 17,1 17,8 3 1 4 2 E 1024,5 10 0 0,0
15.10.2017 04:00:00 11,1 10,3 8,6 17,2 17,8 2 1 5 3 SE 1024,7 14 0 0,0
15.10.2017 03:00:00 11,6 10,5 9,0 17,3 17,9 0 0 4 2 N 1024,9 10 0 0,0
15.10.2017 02:00:00 12,3 10,9 9,7 17,4 17,9 0 0 5 3 N 1025,0 14 0 0,0
15.10.2017 01:00:00 13,4 11,6 10,4 17,4 17,9 4 2 8 4 ESE 1025,1 16 0 0,0
15.10.2017 00:00:00 14,4 11,9 11,7 17,5 17,8 3 2 8 4 E 1025,2 18 0 0,0
14.10.2017 23:00:00 16,2 12,7 12,4 17,5 17,9 5 3 11 6 E 1025,1 20 0 0,0
14.10.2017 22:00:00 16,3 12,8 13,1 17,5 17,9 7 4 12 7 S 1025,0 20 0 0,0
14.10.2017 21:00:00 17,7 13,4 15,8 17,4 17,9 10 6 22 12 S 1024,8 20 0 0,0
14.10.2017 20:00:00 19,6 13,8 18,1 17,3 17,9 14 8 22 12 S 1024,1 20 0 0,0
14.10.2017 19:00:00 21,5 14,4 20,1 17,1 17,9 11 6 21 12 S 1023,5 20 46 0,0
14.10.2017 18:00:00 25,3 15,0 28,3 16,9 17,8 5 3 15 8 S 1023,1 20 60 0,0
14.10.2017 17:00:00 25,6 14,4 29,8 16,8 17,8 5 3 16 9 SE 1023,2 20 60 0,0
14.10.2017 16:00:00 25,2 13,7 29,4 16,6 17,9 9 5 16 8 S 1023,6 20 60 0,0
14.10.2017 15:00:00 23,8 13,1 27,3 16,4 17,8 7 4 18 10 SSE 1024,1 20 60 0,0
14.10.2017 14:00:00 22,7 12,9 26,5 16,3 17,9 10 5 18 10 SSE 1025,0 20 60 0,0
14.10.2017 13:00:00 20,4 13,6 24,6 16,3 17,9 4 2 10 5 E 1025,8 20 60 0,0
14.10.2017 12:00:00 17,9 13,2 17,0 16,3 17,9 2 1 9 5 E 1026,6 18 56 0,0
14.10.2017 11:00:00 13,9 11,1 11,9 16,4 17,9 0 0 5 3 N 1027,1 17 33 0,0
14.10.2017 10:00:00 11,0 9,7 11,4 16,5 17,9 2 1 4 2 ENE 1027,1 12 26 0,0
14.10.2017 09:00:00 9,6 8,8 5,7 16,7 17,9 0 0 3 2 N 1026,8 16 26 0,0
14.10.2017 08:00:00 8,3 7,5 5,9 16,8 17,9 0 0 8 4 N 1026,2 16 0 0,0
14.10.2017 07:00:00 9,0 8,2 6,1 16,9 17,9 0 0 3 2 N 1026,0 15 0 0,0
14.10.2017 06:00:00 9,2 8,6 6,5 17,0 17,9 0 0 4 2 N 1025,8 8 0 0,0
14.10.2017 05:00:00 9,7 8,6 7,5 17,1 17,9 0 0 2 1 N 1025,5 16 0 0,0
14.10.2017 04:00:00 10,1 8,7 7,7 17,2 17,9 0 0 5 3 N 1025,7 15 0 0,0
14.10.2017 03:00:00 10,3 9,2 8,2 17,3 17,9 4 2 5 3 ESE 1025,9 13 0 0,0
14.10.2017 02:00:00 11,5 10,4 8,6 17,4 17,9 0 0 3 2 N 1025,8 18 0 0,0
14.10.2017 01:00:00 12,6 11,0 8,9 17,5 17,9 2 1 4 2 ENE 1025,8 19 0 0,0
14.10.2017 00:00:00 12,9 10,6 9,8 17,5 17,9 2 1 5 3 E 1025,4 17 0 0,0
13.10.2017 23:00:00 14,4 11,0 10,6 17,6 17,9 0 0 6 3 N 1025,2 20 0 0,0
13.10.2017 22:00:00 16,9 11,8 12,7 17,6 17,9 0 0 14 7 N 1024,6 20 0 0,0
13.10.2017 21:00:00 16,3 12,8 12,5 17,5 17,9 3 2 5 3 S 1024,3 14 0 0,0

tt = Température de l'air
td = dewpoint
tt 5cm = Température de l'air 5cm
tt -20cm = Température de l'air -20cm
tt -100cm = Température de l'air -100cm
ff = Vitesse du vent
fx = gusts
dd = Direction du vent
ppp = reduced air pressure
vv = visibility
sd = Ensoleillement
rr = Quantités de précipitations

stations d'obs. à proximité